This is the latest recevied weather packets stored in our database for station/object WB4YDL. If no packets are shown the sender has not sent any weather packets the latest 10 day(s).
| Time | Temp. | Humidity | Pressure | Rain* | Wind** | Luminosity | Snow |
|---|---|---|---|---|---|---|---|
| 1777574810 | 16.67° C | 44% | 1012.3 hPa | 0 mm | - | 796 W/m² | - |
| 1777574509 | 16.67° C | 45% | 1012.3 hPa | 0 mm | - | 671 W/m² | - |
| 1777574204 | 16.67° C | 43% | 1012.3 hPa | 0 mm | - | 710 W/m² | - |
| 1777573899 | 17.22° C | 48% | 1012.8 hPa | 0 mm | - | 715 W/m² | - |
| 1777573599 | 16.67° C | 45% | 1012.6 hPa | 0 mm | - | 680 W/m² | - |
| 1777573296 | 16.67° C | 42% | 1012.7 hPa | 0 mm | - | 708 W/m² | - |
| 1777572992 | 16.67° C | 45% | 1012.7 hPa | 0 mm | - | 644 W/m² | - |
| 1777572688 | 17.22° C | 46% | 1012.8 hPa | 0 mm | - | 693 W/m² | - |
| 1777572388 | 16.67° C | 46% | 1013 hPa | 0 mm | - | 611 W/m² | - |
| 1777572085 | 16.11° C | 45% | 1012.8 hPa | 0 mm | - | 572 W/m² | - |
| 1777571779 | 16.11° C | 44% | 1012.9 hPa | 1.78 mm | - | 652 W/m² | - |
| 1777571476 | 16.11° C | 42% | 1012.9 hPa | 1.78 mm | - | 693 W/m² | - |
| 1777571173 | 16.11° C | 43% | 1012.8 hPa | 0 mm | - | 574 W/m² | - |
| 1777570869 | 15.56° C | 44% | 1012.7 hPa | 0 mm | - | 556 W/m² | - |
| 1777570564 | 16.11° C | 46% | 1013.1 hPa | 0 mm | - | 493 W/m² | - |
| 1777570262 | 16.11° C | 43% | 1012.9 hPa | 0 mm | - | 512 W/m² | - |
| 1777569957 | 15.56° C | 45% | 1013 hPa | 0 mm | - | 547 W/m² | - |
| 1777569653 | 16.11° C | 45% | 1012.9 hPa | 0 mm | - | 560 W/m² | - |
| 1777569349 | 16.11° C | 46% | 1012.8 hPa | 0 mm | - | 643 W/m² | - |
| 1777569046 | 16.11° C | 44% | 1013.1 hPa | 0 mm | - | 617 W/m² | - |
| 1777568742 | 16.11° C | 42% | 1013.1 hPa | 0 mm | - | 618 W/m² | - |
| 1777568440 | 16.67° C | 45% | 1013.2 hPa | 0 mm | - | 598 W/m² | - |
| 1777568137 | 16.67° C | 49% | 1013.4 hPa | 0 mm | - | 706 W/m² | - |
| 1777567833 | 16.67° C | 46% | 1013.4 hPa | 0 mm | - | 658 W/m² | - |
| 1777567529 | 16.11° C | 49% | 1013.3 hPa | 0 mm | - | 758 W/m² | - |
* Rain latest hour (hover to see other rain measurements)
** Current wind speed in m/s (hover to see current wind gust speed)